sat.trackr.live / text

‹ back to catalog

TEVEL2-8

NORAD 63239 · 2025-052AF

PAYLOAD ACTIVE UNKNOWN

§ Identity

Operator
Country
ISRA
Launch date
2025-03-15
Launch site
AFWTR
Launch vehicle
Mass (kg)
RCS (m²)

Purposes: comms

External: N2YO · Heavens-Above · Gunter

§ Orbital elements

Epoch: 2026-09-18T03:53:10.688928Z

Period
93.86 min
Inclination
97.3792°
Eccentricity
0.0006556
Mean motion
15.34143407 rev/d
Perigee alt
459.0 km
Apogee alt
468.0 km
Semi-major
6,841.6 km
B*
3.6466e-4
RAAN
156.2599°
Arg perigee
151.7923°
Mean anomaly
208.3676°
Rev number
8,426

§ Raw data

TEVEL2-81 63239U 25052AF  26261.16192927  .00011984  00000+0  36466-3 0  99912 63239  97.3792 156.2599 0006556 151.7923 208.3676 15.34143407 84263

JSON: /api/v1/satellites/63239 · /tle

For live sub-satellite position, see the globe view (requires WebGL).

§ Visibility from observer

Set your observer location to see the next 7 days of passes ≥ 10°. The values pass through the URL so the page stays shareable.

No JS? Fill the form by hand. The geolocation button needs JavaScript.

§ Radio — SatNOGS DB

ModeDescriptionDownlinkUplink
BPSK Mode U - BPSK9k6 G3RUH 436.400 MHz
FM Mode V/U - FM Transponder - Beacon 436.400 MHz 145.970 MHz

2 transmitters · refreshed weekly from db.satnogs.org